Preview of NWS' New Version of Forecast
This preview is not operational and should not be used for support decisions.

Regional Weather Roundup (RWR)

Issued by National Weather Service (NWS)

                            
000
ASCA42 TJSJ 160110
RWRPR 
PUERTO RICO/U.S. VIRGIN ISLANDS HOURLY WEATHER ROUNDUP
NATIONAL WEATHER SERVICE SAN JUAN PR
900 PM AST FRI FEB 15 2019

PRZ001>002-007>008-010-160200-
PUERTO RICO
  
CITY           SKY/WX    TMP DP  RH WIND       PRES   REMARKS
SAN JUAN LMM   PTCLDY    79  70  73 SE7       30.00S                  
AGUADILLA      CLEAR     75  55  50 CALM      30.00S                  
CEIBA          PTCLDY    73  70  88 SE7       30.04R                  
$$

VIZ001>002-160200-
U.S. VIRGIN ISLANDS
  
CITY           SKY/WX    TMP DP  RH WIND       PRES   REMARKS
CHARLOTTE AMA  CLEAR     79  72  78 SE12      30.02R                  
CHRISTIANSTED  PTCLDY    79  72  78 SE7       30.04R                  
$$

HOURLY WEATHER ROUNDUP FOR THE NEWS MEDIA
  
CITY           SKY/WX    TMP DP  RH WIND       PRES   REMARKS
ORLANDO        FAIR      66  56  70 SE7       29.93F                  
NEW YORK       CLOUDY    45  42  89 S14       29.66S                  
NEWARK         MOCLDY    56  40  55 SW5       29.64R                  
CHICAGO        MOCLDY    16   8  71 NW9       30.01R WCI   4          
HARTFORD       LGT RAIN  50  50 100 SW20G31   29.67S                  
BOSTON         CLOUDY    51  46  83 S15       29.63F                  
DALLAS         MOCLDY    54  39  57 N18G26    29.84R                  
PHILADELPHIA   CLOUDY    57  40  52 SW10      29.66S                  
LOS ANGELES    DRIZZLE   54  50  86 W14       30.07F                  
WASHINGTON DC  CLOUDY    57  39  51 NW16      29.71R